NOZ123 ESGG-ENML

Flight info

Callsign NOZ123
Flight time 1h 6m
Altitude 36000
Route SABAK L997 XENTA DCT GIMEX DCT VEPUL
Aircraft B738/M-SDE2E3FGHIRWXY/LB1

Departure

Time 2026-04-24 19:45
Airport Göteborg Landvetter Airport (ESGG)

Arrival

Time 2026-04-24 20:51
Airport Molde Airport, Årø (ENML)
Time Latitude Longitude Altitude Speed Heading
2026-04-24 19:17 57.66888 12.29420 515 ft 0 kts 116°
2026-04-24 19:34 57.66896 12.29392 515 ft 4 kts 116°
2026-04-24 19:34 57.66906 12.29346 515 ft 4 kts 101°
2026-04-24 19:34 57.66905 12.29300 515 ft 4 kts 62°
2026-04-24 19:34 57.66891 12.29272 515 ft 1 kts 26°
2026-04-24 19:35 57.66887 12.29269 515 ft 0 kts 26°
2026-04-24 19:41 57.66897 12.29278 515 ft 6 kts 26°
2026-04-24 19:41 57.66955 12.29331 515 ft 12 kts 26°
2026-04-24 19:41 57.67065 12.29431 515 ft 22 kts 26°
2026-04-24 19:41 57.67201 12.29554 515 ft 21 kts 26°
2026-04-24 19:42 57.67329 12.29671 515 ft 15 kts 26°
2026-04-24 19:42 57.67390 12.29730 515 ft 8 kts 358°
2026-04-24 19:42 57.67439 12.29693 515 ft 7 kts 340°
2026-04-24 19:42 57.67487 12.29662 515 ft 7 kts 340°
2026-04-24 19:43 57.67529 12.29616 515 ft 7 kts 321°
2026-04-24 19:43 57.67568 12.29499 515 ft 17 kts 295°
2026-04-24 19:43 57.67593 12.29261 515 ft 13 kts 274°
2026-04-24 19:43 57.67589 12.29174 515 ft 6 kts 222°
2026-04-24 19:44 57.67582 12.29166 515 ft 1 kts 209°
2026-04-24 19:44 57.67480 12.29070 514 ft 45 kts 205°
2026-04-24 19:44 57.67002 12.28635 513 ft 106 kts 206°
2026-04-24 19:44 57.66181 12.27891 515 ft 153 kts 206°
2026-04-24 19:45 57.65192 12.27003 909 ft 162 kts 206°
2026-04-24 19:45 57.64175 12.26073 1510 ft 167 kts 209°
2026-04-24 19:45 57.63149 12.25150 2200 ft 164 kts 210°
2026-04-24 19:45 57.62063 12.24173 2524 ft 185 kts 209°
2026-04-24 19:46 57.60833 12.23046 2752 ft 208 kts 209°
2026-04-24 19:46 57.59475 12.21804 2906 ft 227 kts 208°
2026-04-24 19:46 57.58003 12.20451 3103 ft 245 kts 210°
2026-04-24 19:46 57.56673 12.18382 3351 ft 256 kts 242°
2026-04-24 19:47 57.56209 12.15224 4013 ft 254 kts 267°
2026-04-24 19:47 57.56072 12.11920 4710 ft 257 kts 266°
2026-04-24 19:47 57.55917 12.09720 5164 ft 259 kts 263°
2026-04-24 19:47 57.55442 12.05290 6126 ft 263 kts 261°
2026-04-24 19:48 57.55068 12.01947 6825 ft 264 kts 262°
2026-04-24 19:48 57.54703 11.98591 7549 ft 266 kts 262°
2026-04-24 19:48 57.54720 11.91875 8970 ft 262 kts 301°
2026-04-24 19:49 57.57563 11.87714 10303 ft 273 kts 330°
2026-04-24 19:49 57.61244 11.84280 10630 ft 317 kts 334°
2026-04-24 19:50 57.68044 11.80786 12009 ft 349 kts 349°
2026-04-24 19:50 57.70433 11.80227 12729 ft 351 kts 350°
2026-04-24 19:51 57.75322 11.79013 14126 ft 357 kts 348°
2026-04-24 19:51 57.77780 11.78282 14782 ft 359 kts 347°
2026-04-24 19:52 57.82743 11.76644 16121 ft 365 kts 346°
2026-04-24 19:52 57.85246 11.75777 16770 ft 368 kts 346°
2026-04-24 19:52 57.87772 11.74891 17402 ft 371 kts 346°
2026-04-24 19:52 57.90320 11.73994 18041 ft 374 kts 346°
2026-04-24 19:53 57.92888 11.73035 18589 ft 377 kts 343°
2026-04-24 19:53 57.94579 11.72253 18963 ft 377 kts 341°
2026-04-24 19:53 57.99593 11.69280 20103 ft 379 kts 336°
2026-04-24 19:54 58.02069 11.67511 20628 ft 381 kts 335°
2026-04-24 19:54 58.04526 11.65594 21157 ft 383 kts 334°
2026-04-24 19:54 58.06993 11.63631 21686 ft 386 kts 334°
2026-04-24 19:54 58.09486 11.61691 22188 ft 389 kts 334°
2026-04-24 19:55 58.11148 11.60432 22514 ft 391 kts 335°
2026-04-24 19:55 58.14557 11.57928 23155 ft 394 kts 335°
2026-04-24 19:55 58.17132 11.56086 23607 ft 397 kts 335°
2026-04-24 19:55 58.19729 11.54253 24000 ft 399 kts 335°
2026-04-24 19:56 58.22340 11.52424 24421 ft 401 kts 335°
2026-04-24 19:56 58.24962 11.50590 24808 ft 403 kts 335°
2026-04-24 19:56 58.27597 11.48747 25186 ft 405 kts 335°
2026-04-24 19:56 58.30246 11.46891 25562 ft 407 kts 335°
2026-04-24 19:57 58.32906 11.45024 25929 ft 408 kts 335°
2026-04-24 19:57 58.35578 11.43144 26293 ft 410 kts 335°
2026-04-24 19:57 58.38261 11.41254 26641 ft 412 kts 335°
2026-04-24 19:57 58.40956 11.39351 26983 ft 414 kts 335°
2026-04-24 19:58 58.43662 11.37437 27323 ft 415 kts 335°
2026-04-24 19:58 58.46344 11.35537 27653 ft 417 kts 335°
2026-04-24 19:58 58.49069 11.33603 27973 ft 419 kts 335°
2026-04-24 19:58 58.51802 11.31660 28320 ft 419 kts 335°
2026-04-24 19:59 58.54533 11.29718 28815 ft 417 kts 335°
2026-04-24 19:59 58.57241 11.27789 29371 ft 413 kts 334°
2026-04-24 19:59 58.59926 11.25874 29872 ft 411 kts 334°
2026-04-24 19:59 58.62602 11.23960 30244 ft 410 kts 334°
2026-04-24 20:00 58.65275 11.22043 30548 ft 410 kts 334°
2026-04-24 20:00 58.67949 11.20121 30863 ft 411 kts 334°
2026-04-24 20:00 58.70623 11.18196 31201 ft 410 kts 334°
2026-04-24 20:00 58.73297 11.16270 31517 ft 410 kts 334°
2026-04-24 20:01 58.75965 11.14344 31815 ft 410 kts 334°
2026-04-24 20:01 58.78636 11.12414 32125 ft 410 kts 334°
2026-04-24 20:01 58.81309 11.10478 32445 ft 409 kts 334°
2026-04-24 20:01 58.83974 11.08547 32757 ft 409 kts 334°
2026-04-24 20:02 58.86640 11.06610 33042 ft 410 kts 334°
2026-04-24 20:02 58.89309 11.04669 33333 ft 410 kts 334°
2026-04-24 20:02 58.91976 11.02725 33623 ft 409 kts 334°
2026-04-24 20:02 58.94643 11.00778 33914 ft 410 kts 334°
2026-04-24 20:03 58.97275 10.98854 34178 ft 410 kts 334°
2026-04-24 20:03 58.99954 10.96892 34402 ft 411 kts 334°
2026-04-24 20:03 59.02633 10.94926 34609 ft 413 kts 334°
2026-04-24 20:03 59.05322 10.92950 34854 ft 414 kts 334°
2026-04-24 20:04 59.08017 10.90965 35071 ft 415 kts 334°
2026-04-24 20:04 59.10718 10.88974 35300 ft 416 kts 334°
2026-04-24 20:04 59.13427 10.86974 35537 ft 416 kts 334°
2026-04-24 20:04 59.16138 10.84970 35785 ft 417 kts 334°
2026-04-24 20:05 59.18855 10.82956 35972 ft 418 kts 334°
2026-04-24 20:05 59.21575 10.80938 36154 ft 419 kts 334°
2026-04-24 20:05 59.24307 10.78907 36230 ft 421 kts 334°
2026-04-24 20:06 59.29796 10.74816 36233 ft 421 kts 334°
2026-04-24 20:06 59.32532 10.72773 35851 ft 419 kts 334°
2026-04-24 20:06 59.35249 10.70742 35855 ft 417 kts 334°
2026-04-24 20:07 59.39749 10.67368 35859 ft 415 kts 334°
2026-04-24 20:07 59.46046 10.62626 35859 ft 414 kts 334°
2026-04-24 20:08 59.51419 10.58565 35859 ft 414 kts 334°
2026-04-24 20:08 59.56797 10.54485 35858 ft 415 kts 334°
2026-04-24 20:09 59.62190 10.50380 35862 ft 416 kts 334°
2026-04-24 20:09 59.67612 10.46239 35862 ft 419 kts 334°
2026-04-24 20:10 59.73068 10.42058 35851 ft 421 kts 334°
2026-04-24 20:10 59.78544 10.37848 35858 ft 423 kts 334°
2026-04-24 20:11 59.84014 10.33627 35855 ft 425 kts 334°
2026-04-24 20:11 59.89528 10.29359 35867 ft 426 kts 334°
2026-04-24 20:12 59.95058 10.25062 35876 ft 426 kts 334°
2026-04-24 20:12 60.00588 10.20750 35861 ft 426 kts 334°
2026-04-24 20:13 60.06108 10.16430 35868 ft 426 kts 334°
2026-04-24 20:13 60.11621 10.12100 35863 ft 425 kts 334°
2026-04-24 20:14 60.17124 10.07761 35868 ft 424 kts 334°
2026-04-24 20:14 60.22609 10.03421 35871 ft 423 kts 334°
2026-04-24 20:15 60.28087 9.99071 35874 ft 423 kts 334°
2026-04-24 20:15 60.33517 9.94744 35877 ft 422 kts 334°
2026-04-24 20:16 60.38981 9.90373 35879 ft 422 kts 334°
2026-04-24 20:16 60.44450 9.85982 35879 ft 422 kts 334°
2026-04-24 20:17 60.49908 9.81585 35883 ft 422 kts 334°
2026-04-24 20:17 60.58093 9.74961 35892 ft 422 kts 334°
2026-04-24 20:18 60.63545 9.70528 35885 ft 422 kts 333°
2026-04-24 20:18 60.68992 9.66083 35894 ft 421 kts 333°
2026-04-24 20:19 60.74434 9.61627 35897 ft 421 kts 333°
2026-04-24 20:19 60.79873 9.57155 35892 ft 421 kts 333°
2026-04-24 20:20 60.85308 9.52671 35910 ft 421 kts 333°
2026-04-24 20:20 60.90746 9.48167 35914 ft 422 kts 333°
2026-04-24 20:21 60.96204 9.43630 35907 ft 423 kts 333°
2026-04-24 20:21 61.01665 9.39075 35908 ft 424 kts 333°
2026-04-24 20:22 61.07135 9.34496 35906 ft 424 kts 333°
2026-04-24 20:22 61.12566 9.29931 35908 ft 424 kts 333°
2026-04-24 20:23 61.18039 9.25312 35492 ft 430 kts 333°
2026-04-24 20:23 61.20811 9.22965 34973 ft 429 kts 333°
2026-04-24 20:23 61.23578 9.20623 34313 ft 429 kts 333°
2026-04-24 20:24 61.25446 9.19039 33876 ft 429 kts 333°
2026-04-24 20:24 61.29108 9.15927 32844 ft 430 kts 333°
2026-04-24 20:24 61.31876 9.13567 32101 ft 430 kts 333°
2026-04-24 20:24 61.34639 9.11208 31549 ft 427 kts 333°
2026-04-24 20:25 61.37375 9.08871 31035 ft 422 kts 333°
2026-04-24 20:25 61.40081 9.06553 30540 ft 418 kts 333°
2026-04-24 20:25 61.42765 9.04249 30048 ft 415 kts 333°
2026-04-24 20:25 61.45421 9.01962 29470 ft 411 kts 333°
2026-04-24 20:26 61.48053 8.99694 28955 ft 406 kts 333°
2026-04-24 20:26 61.50649 8.97453 28451 ft 401 kts 333°
2026-04-24 20:26 61.53211 8.95236 27959 ft 397 kts 333°
2026-04-24 20:26 61.55750 8.93035 27440 ft 393 kts 333°
2026-04-24 20:27 61.58261 8.90854 26972 ft 389 kts 333°
2026-04-24 20:27 61.60749 8.88690 26464 ft 385 kts 333°
2026-04-24 20:27 61.63211 8.86544 25995 ft 381 kts 332°
2026-04-24 20:27 61.65651 8.84415 25528 ft 378 kts 332°
2026-04-24 20:28 61.68067 8.82302 25057 ft 375 kts 332°
2026-04-24 20:28 61.70466 8.80199 24601 ft 372 kts 332°
2026-04-24 20:28 61.72818 8.78135 24147 ft 370 kts 332°
2026-04-24 20:28 61.75219 8.76024 23685 ft 367 kts 332°
2026-04-24 20:29 61.76775 8.74654 23357 ft 366 kts 332°
2026-04-24 20:29 61.79872 8.71923 22680 ft 362 kts 332°
2026-04-24 20:29 61.82189 8.69877 22204 ft 359 kts 332°
2026-04-24 20:29 61.84514 8.67820 21760 ft 356 kts 332°
2026-04-24 20:30 61.86793 8.65800 21303 ft 353 kts 332°
2026-04-24 20:30 61.89046 8.63801 20855 ft 350 kts 332°
2026-04-24 20:30 61.91279 8.61816 20419 ft 346 kts 332°
2026-04-24 20:30 61.93493 8.59845 19975 ft 343 kts 332°
2026-04-24 20:31 61.95661 8.57912 19554 ft 340 kts 332°
2026-04-24 20:31 61.97834 8.55971 19133 ft 338 kts 332°
2026-04-24 20:31 61.99999 8.54033 18708 ft 336 kts 332°
2026-04-24 20:31 62.02145 8.52109 18287 ft 334 kts 332°
2026-04-24 20:32 62.04284 8.50189 17812 ft 332 kts 332°
2026-04-24 20:32 62.06402 8.48287 17396 ft 328 kts 332°
2026-04-24 20:32 62.08495 8.46403 16972 ft 325 kts 332°
2026-04-24 20:32 62.10571 8.44531 16564 ft 321 kts 332°
2026-04-24 20:33 62.12622 8.42680 16155 ft 318 kts 332°
2026-04-24 20:33 62.14642 8.40854 15767 ft 314 kts 332°
2026-04-24 20:33 62.16646 8.39041 15355 ft 311 kts 332°
2026-04-24 20:33 62.18626 8.37246 14970 ft 308 kts 332°
2026-04-24 20:34 62.20585 8.35438 14573 ft 304 kts 330°
2026-04-24 20:34 62.22464 8.33390 14145 ft 303 kts 328°
2026-04-24 20:34 62.24308 8.31234 13732 ft 300 kts 327°
2026-04-24 20:34 62.25517 8.29810 13426 ft 298 kts 327°
2026-04-24 20:35 62.27926 8.26994 12906 ft 292 kts 327°
2026-04-24 20:35 62.29698 8.24941 12548 ft 287 kts 327°
2026-04-24 20:35 62.31451 8.22915 12163 ft 284 kts 327°
2026-04-24 20:35 62.33184 8.20917 11770 ft 281 kts 327°
2026-04-24 20:36 62.34899 8.18944 11392 ft 278 kts 327°
2026-04-24 20:36 62.36595 8.16987 11032 ft 276 kts 327°
2026-04-24 20:36 62.38282 8.15033 10658 ft 275 kts 326°
2026-04-24 20:36 62.39934 8.13127 10591 ft 265 kts 326°
2026-04-24 20:37 62.41559 8.11246 10487 ft 264 kts 327°
2026-04-24 20:37 62.43183 8.09347 10311 ft 267 kts 326°
2026-04-24 20:37 62.44813 8.07456 10201 ft 264 kts 326°
2026-04-24 20:37 62.46403 8.05617 10103 ft 256 kts 326°
2026-04-24 20:38 62.47947 8.03826 9980 ft 247 kts 326°
2026-04-24 20:38 62.49407 8.02123 9846 ft 239 kts 325°
2026-04-24 20:38 62.50867 8.00417 9552 ft 236 kts 325°
2026-04-24 20:38 62.52313 7.98730 9274 ft 237 kts 325°
2026-04-24 20:39 62.53753 7.97051 9018 ft 232 kts 326°
2026-04-24 20:39 62.55258 7.95680 8701 ft 239 kts 336°
2026-04-24 20:39 62.56891 7.94900 8408 ft 241 kts 345°
2026-04-24 20:39 62.58582 7.94598 8201 ft 250 kts 348°
2026-04-24 20:40 62.60347 7.94288 7845 ft 257 kts 346°
2026-04-24 20:40 62.62131 7.93854 7591 ft 258 kts 345°
2026-04-24 20:40 62.63343 7.93502 7222 ft 263 kts 345°
2026-04-24 20:40 62.65196 7.92925 6704 ft 270 kts 345°
2026-04-24 20:41 62.67016 7.92359 6548 ft 264 kts 344°
2026-04-24 20:41 62.68808 7.91801 6558 ft 253 kts 344°
2026-04-24 20:41 62.70517 7.91266 6449 ft 243 kts 343°
2026-04-24 20:41 62.72136 7.90771 6270 ft 225 kts 342°
2026-04-24 20:42 62.73611 7.90245 6130 ft 203 kts 335°
2026-04-24 20:42 62.74754 7.88844 5876 ft 183 kts 311°
2026-04-24 20:42 62.75721 7.87115 5671 ft 178 kts 316°
2026-04-24 20:42 62.76728 7.85652 5516 ft 170 kts 319°
2026-04-24 20:43 62.77692 7.84295 5393 ft 161 kts 317°
2026-04-24 20:43 62.78621 7.82961 5234 ft 156 kts 317°
2026-04-24 20:43 62.79530 7.81632 5101 ft 158 kts 314°
2026-04-24 20:43 62.80209 7.79821 4916 ft 154 kts 283°
2026-04-24 20:44 62.80133 7.77582 4831 ft 149 kts 258°
2026-04-24 20:44 62.79975 7.75335 4627 ft 151 kts 276°
2026-04-24 20:44 62.80218 7.73095 4478 ft 152 kts 282°
2026-04-24 20:44 62.80287 7.70834 4300 ft 150 kts 253°
2026-04-24 20:45 62.79658 7.69048 4212 ft 153 kts 230°
2026-04-24 20:45 62.78939 7.67346 4049 ft 147 kts 248°
2026-04-24 20:45 62.78976 7.65318 3943 ft 139 kts 295°
2026-04-24 20:45 62.79517 7.63559 3759 ft 140 kts 292°
2026-04-24 20:46 62.79558 7.61631 3579 ft 131 kts 242°
2026-04-24 20:46 62.78801 7.60448 3400 ft 143 kts 212°
2026-04-24 20:46 62.77902 7.59622 3279 ft 134 kts 221°
2026-04-24 20:46 62.77473 7.58059 3131 ft 120 kts 275°
2026-04-24 20:47 62.77630 7.56245 3083 ft 126 kts 283°
2026-04-24 20:47 62.77735 7.54363 2774 ft 126 kts 272°
2026-04-24 20:47 62.77669 7.52533 2649 ft 117 kts 267°
2026-04-24 20:47 62.77534 7.50700 2446 ft 127 kts 262°
2026-04-24 20:48 62.77339 7.48810 2214 ft 127 kts 261°
2026-04-24 20:48 62.77128 7.46961 1990 ft 125 kts 260°
2026-04-24 20:48 62.76910 7.45123 1802 ft 124 kts 258°
2026-04-24 20:48 62.76669 7.43296 1625 ft 128 kts 258°
2026-04-24 20:49 62.76431 7.41437 1414 ft 125 kts 259°
2026-04-24 20:49 62.76197 7.39571 1246 ft 129 kts 258°
2026-04-24 20:49 62.75962 7.37670 1097 ft 126 kts 259°
2026-04-24 20:49 62.75747 7.35815 900 ft 130 kts 257°
2026-04-24 20:50 62.75504 7.33940 786 ft 129 kts 261°
2026-04-24 20:50 62.75273 7.32031 581 ft 131 kts 258°
2026-04-24 20:50 62.75025 7.30115 335 ft 130 kts 259°
2026-04-24 20:50 62.74794 7.28220 59 ft 126 kts 251°
2026-04-24 20:51 62.74533 7.26558 18 ft 95 kts 252°
2026-04-24 20:51 62.74380 7.25618 17 ft 48 kts 251°
2026-04-24 20:51 62.74290 7.25051 16 ft 27 kts 251°
2026-04-24 20:51 62.74234 7.24794 14 ft 13 kts 225°
2026-04-24 20:52 62.74226 7.24736 14 ft 1 kts 308°
2026-04-24 20:52 62.74237 7.24744 14 ft 3 kts 35°
2026-04-24 20:52 62.74262 7.24872 15 ft 15 kts 71°
2026-04-24 20:52 62.74307 7.25161 17 ft 22 kts 70°
2026-04-24 20:53 62.74355 7.25468 17 ft 21 kts 71°
2026-04-24 20:53 62.74402 7.25765 19 ft 20 kts 71°
2026-04-24 20:53 62.74452 7.25846 18 ft 8 kts 355°
2026-04-24 20:53 62.74502 7.25844 21 ft 8 kts 41°
2026-04-24 20:54 62.74526 7.25945 21 ft 7 kts 69°
2026-04-24 20:54 62.74543 7.26049 21 ft 7 kts 72°
2026-04-24 20:54 62.74561 7.26147 23 ft 7 kts 52°
2026-04-24 20:54 62.74602 7.26152 22 ft 4 kts 341°
2026-04-24 20:55 62.74605 7.26150 22 ft 0 kts 342°